{"data":{"norad_id":68412,"intl_designator":"2026-066A","name":"XINZHENGCHENG-01","alt_names":[],"object_type":"PAYLOAD","status":"ACTIVE","operator":null,"country":"PRC","launch_date":"2026-03-30","launch_site_code":"JSC","launch_vehicle":null,"mission":null,"orbit_class":"UNKNOWN","rcs_meters":null,"size_class":null,"mass_kg":null,"dimensions":null,"purposes":[],"wikipedia_slug":null,"has_3d_model":false,"image_url":null,"decayed_at":null,"tle_current":{"epoch":"2026-09-20T03:43:12.990144Z","epoch_age_seconds":98681,"freshness":"FRESH","line1":"1 68412U 26066A   26263.15501146  .00000312  00000+0  30270-4 0  9994","line2":"2 68412  84.9709 167.3482 0023320 283.4006  76.4618 14.88486036 25854","mean_motion":14.88486036,"eccentricity":0.002332,"inclination_deg":84.9709,"raan_deg":167.3482,"arg_perigee_deg":283.4006,"mean_anomaly_deg":76.4618,"bstar":3.027e-5,"rev_number":2585,"period_min":96.742593828405,"perigee_km":586.38595304692,"apogee_km":618.94441443188,"semimajor_km":6980.8021837394,"source":"CELESTRAK","updated_at":"2026-09-20T09:00:24.196317Z"}}}